Weather History for Ruston, LA

Change the Weather History Date:

Friday, September 6, 2013

  Actual Average Record
Temperature  
Mean Temperature 82 °F -  
Max Temperature 97 °F 88 °F 105 °F (1947)
Min Temperature 67 °F 66 °F 51 °F (2006)
Cooling Degree Days 17    
Growing Degree Days 32 (Base 50)    
Moisture  
Dew Point 64 °F    
Average Humidity 61    
Maximum Humidity 100    
Minimum Humidity 22    
Precipitation  
Precipitation 0.00 in - - ()
Sea Level Pressure  
Sea Level Pressure 30.08 in    
Wind  
Wind Speed 2 mph (South)    
Max Wind Speed 6 mph    
Max Gust Speed -    
Visibility 10 miles    
Events      
Averages and records for this station are not official NWS values.
T = Trace of Precipitation, MM = Missing Value Source: NWS Daily Summary

Daily Weather History Graph

Daily Weather History Graph

Search for Another Location

Airport:

Trip Planner

Search our weather history database for the weather conditions in past years. The results will help you decide how hot, cold, wet, or windy it might be!

Date:

Astronomy

Sep. 06, 2013 Rise Set
Actual Time 6:48 AM CDT 7:28 PM CDT
Civil Twilight 6:23 AM CDT 7:52 PM CDT
Nautical Twilight 5:54 AM CDT 8:22 PM CDT
Astronomical Twilight 5:24 AM CDT 8:51 PM CDT
Moon 7:54 AM CDT (9/6) 8:01 PM CDT (9/6)
Length of Visible Light 13h 29m
Length of Day
12h 39m
New Moon, 2% of the Moon is Illuminated
Sep 6
New Moon
Sep 12
First Quarter
Sep 19
Full
Sep 26
Last Quarter
Oct 4
New

Hourly Weather History & Observations

Time (CDT) Temp. Heat Index Dew Point Humidity Pressure Visibility Wind Dir Wind Speed Gust Speed Precip Events Conditions
12:15 AM 77.9 °F - 59.4 °F 53% 30.12 in 10.0 mi East 4.6 mph - N/A   Clear
12:35 AM 77.0 °F - 61.0 °F 58% 30.12 in 10.0 mi East 5.8 mph - N/A   Clear
12:55 AM 77.0 °F - 62.8 °F 61% 30.12 in 10.0 mi Calm Calm - N/A   Clear
1:15 AM 76.6 °F - 63.7 °F 64% 30.11 in 10.0 mi Calm Calm - N/A   Clear
1:35 AM 72.5 °F - 64.4 °F 76% 30.11 in 10.0 mi Calm Calm - N/A   Clear
1:55 AM 71.2 °F - 65.5 °F 82% 30.11 in 10.0 mi Calm Calm - N/A   Clear
2:15 AM 72.1 °F - 65.7 °F 80% 30.11 in 10.0 mi Calm Calm - N/A   Clear
2:35 AM 71.8 °F - 66.6 °F 84% 30.11 in 10.0 mi Calm Calm - N/A   Clear
2:55 AM 70.7 °F - 68.7 °F 93% 30.11 in 10.0 mi Calm Calm - N/A   Clear
3:15 AM 70.7 °F - 68.5 °F 93% 30.10 in 10.0 mi Calm Calm - N/A   Clear
3:35 AM 70.3 °F - 68.5 °F 94% 30.10 in 10.0 mi Calm Calm - N/A   Clear
3:55 AM 71.2 °F - 69.3 °F 93% 30.10 in 10.0 mi Calm Calm - N/A   Clear
4:15 AM 69.4 °F - 69.3 °F 99% 30.10 in 10.0 mi Calm Calm - N/A   Clear
4:35 AM 69.1 °F - 69.1 °F 100% 30.10 in 10.0 mi Calm Calm - N/A   Clear
4:55 AM 69.3 °F - 69.3 °F 100% 30.10 in 10.0 mi Calm Calm - N/A   Clear
5:15 AM 68.4 °F - 68.4 °F 100% 30.10 in 10.0 mi Calm Calm - N/A   Clear
5:35 AM 68.0 °F - 68.0 °F 100% 30.10 in 10.0 mi Calm Calm - N/A   Clear
5:55 AM 68.0 °F - 68.0 °F 100% 30.10 in 10.0 mi Calm Calm - N/A   Clear
6:15 AM 68.2 °F - 68.2 °F 100% 30.11 in 10.0 mi Calm Calm - N/A   Clear
6:35 AM 67.3 °F - 67.3 °F 100% 30.11 in 7.0 mi Calm Calm - N/A   Clear
6:55 AM 67.6 °F - 67.6 °F 100% 30.11 in 10.0 mi Calm Calm - N/A   Clear
7:15 AM 67.1 °F - 67.1 °F 100% 30.12 in 5.0 mi Calm Calm - N/A   Clear
7:35 AM 67.3 °F - 67.3 °F 100% 30.13 in 7.0 mi Calm Calm - N/A   Clear
7:55 AM 68.5 °F - 68.5 °F 100% 30.13 in 10.0 mi Calm Calm - N/A   Clear
8:15 AM 71.1 °F - 70.7 °F 99% 30.13 in 10.0 mi Calm Calm - N/A   Clear
8:35 AM 74.5 °F - 71.8 °F 91% 30.13 in 10.0 mi South 3.5 mph - N/A   Clear
8:55 AM 78.6 °F - 70.9 °F 77% 30.13 in 10.0 mi South 3.5 mph - N/A   Clear
9:15 AM 80.8 °F 84.4 °F 70.7 °F 71% 30.14 in 10.0 mi South 3.5 mph - N/A   Clear
9:35 AM 82.2 °F 86.4 °F 70.7 °F 68% 30.14 in 10.0 mi Calm Calm - N/A   Clear
9:55 AM 84.6 °F 88.8 °F 70.0 °F 61% 30.14 in 10.0 mi West 4.6 mph - N/A   Clear
10:15 AM 86.5 °F 90.7 °F 69.3 °F 56% 30.14 in 10.0 mi Calm Calm - N/A   Clear
10:35 AM 87.6 °F 91.9 °F 68.9 °F 54% 30.14 in 10.0 mi SSW 3.5 mph - N/A   Clear
10:55 AM 89.2 °F 92.8 °F 67.8 °F 49% 30.15 in 10.0 mi West 3.5 mph - N/A   Clear
11:15 AM 90.3 °F 93.0 °F 66.4 °F 45% 30.14 in 10.0 mi WSW 4.6 mph - N/A   Clear
11:35 AM 91.2 °F 92.5 °F 63.5 °F 40% 30.14 in 10.0 mi Calm Calm - N/A   Clear
11:55 AM 92.5 °F 93.0 °F 62.2 °F 36% 30.14 in 10.0 mi Calm Calm - N/A   Mostly Cloudy
12:15 PM 91.2 °F 91.8 °F 62.2 °F 38% 30.13 in 10.0 mi Calm Calm - N/A   Mostly Cloudy
12:35 PM 93.2 °F 93.3 °F 60.8 °F 34% 30.12 in 10.0 mi WSW 3.5 mph - N/A   Mostly Cloudy
12:55 PM 94.6 °F 93.5 °F 57.4 °F 29% 30.11 in 10.0 mi Calm Calm - N/A   Scattered Clouds
1:15 PM 95.2 °F 93.6 °F 56.7 °F 27% 30.11 in 10.0 mi Calm Calm - N/A   Scattered Clouds
1:35 PM 95.2 °F 93.9 °F 57.0 °F 28% 30.10 in 10.0 mi West 4.6 mph - N/A   Mostly Cloudy
1:55 PM 95.7 °F 94.7 °F 57.4 °F 28% 30.09 in 10.0 mi ENE 4.6 mph - N/A   Scattered Clouds
2:15 PM 95.2 °F 93.6 °F 56.1 °F 27% 30.08 in 10.0 mi West 3.5 mph - N/A   Clear
2:35 PM 96.4 °F 95.0 °F 56.3 °F 26% 30.08 in 10.0 mi South 3.5 mph - N/A   Clear
2:55 PM 96.3 °F 94.0 °F 53.8 °F 24% 30.06 in 10.0 mi South 3.5 mph - N/A   Clear
3:15 PM 97.9 °F 95.8 °F 54.1 °F 23% 30.05 in 10.0 mi Calm Calm - N/A   Scattered Clouds
3:35 PM 97.2 °F - 52.3 °F 22% 30.04 in 10.0 mi East 5.8 mph - N/A   Scattered Clouds
3:55 PM 97.5 °F 95.0 °F 53.2 °F 22% 30.03 in 10.0 mi South 4.6 mph - N/A   Clear
4:15 PM 96.3 °F 94.4 °F 55.0 °F 25% 30.03 in 10.0 mi North 4.6 mph - N/A   Scattered Clouds
4:35 PM 96.3 °F 94.0 °F 53.6 °F 24% 30.02 in 10.0 mi Calm Calm - N/A   Clear
4:55 PM 96.8 °F 94.4 °F 53.2 °F 23% 30.01 in 10.0 mi Calm Calm - N/A   Clear
5:15 PM 96.3 °F - 51.6 °F 22% 30.01 in 10.0 mi Calm Calm - N/A   Clear
5:35 PM 95.9 °F - 52.0 °F 23% 30.01 in 10.0 mi Calm Calm - N/A   Clear
5:55 PM 95.5 °F - 51.3 °F 22% 30.01 in 10.0 mi Calm Calm - N/A   Clear
6:15 PM 95.4 °F - 52.0 °F 23% 30.01 in 10.0 mi ESE 3.5 mph - N/A   Clear
6:35 PM 95.0 °F 92.7 °F 54.1 °F 25% 30.01 in 10.0 mi Calm Calm - N/A   Clear
6:55 PM 93.4 °F 92.2 °F 57.2 °F 30% 30.01 in 10.0 mi Calm Calm - N/A   Clear
7:15 PM 85.3 °F 87.1 °F 65.3 °F 51% 30.01 in 10.0 mi Calm Calm - N/A   Clear
7:35 PM 82.6 °F 85.1 °F 66.7 °F 59% 30.01 in 10.0 mi Calm Calm - N/A   Clear
7:55 PM 81.0 °F 83.0 °F 65.8 °F 60% 30.01 in 10.0 mi Calm Calm - N/A   Clear
8:15 PM 79.0 °F - 67.1 °F 67% 30.01 in 10.0 mi Calm Calm - N/A   Clear
8:35 PM 79.2 °F - 65.3 °F 62% 30.02 in 10.0 mi Calm Calm - N/A   Clear
8:55 PM 79.7 °F - 65.7 °F 62% 30.03 in 10.0 mi Calm Calm - N/A   Clear
9:15 PM 77.5 °F - 66.4 °F 68% 30.03 in 10.0 mi Calm Calm - N/A   Clear
9:35 PM 76.1 °F - 66.9 °F 73% 30.04 in 10.0 mi Calm Calm - N/A   Clear
9:55 PM 76.8 °F - 67.1 °F 72% 30.04 in 10.0 mi South 5.8 mph - N/A   Clear
10:15 PM 80.4 °F 82.4 °F 66.0 °F 61% 30.04 in 10.0 mi South 5.8 mph - N/A   Scattered Clouds
10:35 PM 81.0 °F 83.0 °F 66.0 °F 60% 30.04 in 10.0 mi Calm Calm - N/A   Clear
10:55 PM 78.3 °F - 67.6 °F 70% 30.04 in 10.0 mi Calm Calm - N/A   Clear
11:15 PM 76.1 °F - 68.0 °F 76% 30.04 in 10.0 mi Calm Calm - N/A   Clear
11:35 PM 75.2 °F - 68.2 °F 79% 30.04 in 10.0 mi Calm Calm - N/A   Clear
11:55 PM 74.3 °F - 68.4 °F 82% 30.04 in 10.0 mi Calm Calm - N/A   Clear